Location: Caracas
(10.5033°N, 66.8422°W)
Time: 09:00:12
(UTC-04:00)

N. Korean satellite - Visible Passes

Search period start: 16 July 2018 00:00
Search period end: 26 July 2018 00:00
Orbit: 459 x 511 km, 97.2° (Epoch: 16 July)

Date Brightness Start Highest point End Pass type
(mag) Time Alt. Az. Time Alt. Az. Time Alt. Az.
16 Jul 9.9 19:26:13 10° WSW 19:27:25 11° W 19:28:37 10° W visible
20 Jul 9.8 19:22:35 10° SW 19:24:15 13° W 19:25:55 10° WNW visible
24 Jul 9.7 05:52:47 10° ENE 05:54:25 13° E 05:56:02 10° SE visible
24 Jul 9.7 19:19:02 10° SW 19:21:02 14° W 19:23:02 10° WNW visible
